Погода в Худжанде

Погода в Худжанде : погода сейчас, прогноз погоды и архив. Всё, что Вы хотите узнать о погоде в Худжанде!

Поиск расширенной информации на нашем сайте:

Другие новости

Новости СМИ2

Главная страница сайта

Новости сайта

03.07.2017

Напоминаем, что на нашем специализированном сайте Метеоцентр.Азия вы можете получить высокодетализированные автоматические прогнозы погоды по пунктам России, СНГ и мира в авиационном формате (включающие направление и скорость ветра, видимость, явления погоды, количество и форму облачности, нижнюю и верхнюю границу облачности).

Рекомендуем: Как разбавить дресс-код?

Погода в Худжанде - сегодня

Время (UTC), дата Ветер
(°,м/с) 
Видим.   Явления Облачность Т
(°С)
Тd
(°С)
f(%) Тe
(°С)
Pmin
(гПа)
dP
(гПа)
Po
(мм)
O2
(г/м3)
Тmin Tmax R s Состояние
почвы
21 18.06.18 150 (ЮВ) 10 км    ясно 
+23.7 +11.1 45 +27  1000.5  -0.7  715  263           
00 19.06.18 160 (Ю) 20000 м    5/0 средняя, верхняя 
[Ac trans|Ci fib]
+20.9 +13.4 62 +28  1002.1  1.1  716  265           
03 19.06.18 080 (В) 20000 м    5/0 средняя, верхняя 
[Ac trans|Ci fib]
+28.1 +10.8 34 +31  1001.8  0.8  716  260  +20.7         
06 19.06.18 070 (В) 20000 м    5/1 1500 м верхняя 
[Cu hum|Ci fib]
+31.5 +9.7 26 +33  1000.8  -0.5  716  257  +20.7         
09 19.06.18 150 (ЮВ) 20000 м    10/3 1500 м кучево-дожд., средняя, верхняя 
[Cb cap|Ac trans|Ci sp]
+34.3 +8.8 21 +35  999.6  -0.7  715  255           
12 19.06.18 190 (Ю) 20000 м    9/3 1500 м кучево-дожд., средняя, верхняя 
[Cb cap|Ac trans|Ci fib]
+33.9 +6.3 18 +34  999.8  0.1  715  255           
15 19.06.18 250 (З) 2{19}  20000 м    10/3 1500 м кучево-дожд., средняя 
[Cb cap|Ac und]
+30.1 +5.4 21 +30  1002.5  717  259    +36.6       
18 19.06.18 270 (З) 10 км  {ливн. осадки}  10/3 2000 м кучево-дожд., средняя, верхняя 
[Cb cap|Ac trans|Ci sp]
+27.1 +9.9 34 +29  1004.1  1.1  718  261    +36.6       
21 19.06.18 230 (ЮЗ) 10 км    10/0 кучево-дожд., средняя, верхняя 
[Cb cap|Ac und|Ci sp]
+24.7 +13.9 51 +33  1005  0.6  718  263           
00 20.06.18 030 (СВ) 20000 м    8/1 2000 м кучево-дожд., средняя, верхняя 
[Cb cap|Ac trans|Ci fib]
+25.2 +12.1 44 +30  1004.8  -0.2  718  263           
03 20.06.18 330 (СЗ) 20000 м    5/0 средняя 
[Ac trans]
+26.9 +13.6 44 +34  1006.9  2.3  720  261  +23.2    0.0     
06 20.06.18 260 (З) 20000 м    5/1 1000 м средняя 
[Cu hum|Ac trans]
+29.2 +7.2 25 +29  1007  0.4  720  261  +23.2    0.0     
09 20.06.18 250 (З) 20000 м    4/1 1500 м средняя 
[Cu med, cong|Ac trans]
+31.7 +8.7 24 +32    -1  719  258           
12 20.06.18 270 (З) 20000 м    10/3 2000 м кучево-дожд., средняя, верхняя 
[Cb cap|Ac trans|Ci fib]
+31.2 +7.6 23 +31  1006.8  1.1  720  259           
15 20.06.18 210 (ЮЗ) 20000 м  {гроза}  8/3 2000 м кучево-дожд., средняя, верхняя 
[Cb cap|Ac trans|Ci fib]
+27.5 +11.1 36 +31  1008.5  1.1  721  262    +33.2       
18 20.06.18 290 (З) 20000 м  {гроза}  3/0 верхняя 
[Ci fib]
+24.9 +9.6 38 +26  1009.5  0.5  721  265    +33.2       
21 20.06.18 100 (В) 9{15}  20000 м    1/0 верхняя 
[Ci fib]
+22.9 +14.8 60 +32  1010.8  722  265           
00 21.06.18 090 (В) 20000 м    5/0 средняя, верхняя 
[Ac trans|Ci fib]
+21.2 +12.9 59 +27  1012  0.9  723  268           
03 21.06.18 080 (В) 20000 м  в посл. час ливневой дождь  8/3 1500 м кучево-дожд., средняя 
[Cb cap|Ac trans]
+21.7 +15.3 67 +32  1012.2  0.3  723  267  +21.1    0.0     
06 21.06.18 070 (В) 20000 м  {ливн. осадки}  6/1 1500 м средняя, верхняя 
[Cu med, cong|Ac trans|Ci fib]
+27.6 +10.3 34 +30  1010.1  -1.2  722  262  +21.1    0.0     
09 21.06.18 070 (В) 20000 м    3/1 1500 м верхняя 
[Cu med, cong|Ci sp]
+30.8 +8.5 25 +31  1007.6  -1.2  721  259           
12 21.06.18 160 (Ю) 20000 м    4/1 1500 м кучево-дожд., верхняя 
[Cb cap|Ci sp]
+32.6 +7.5 21 +33  1006.9  -0.9  720  258           
15 21.06.18 160 (Ю) 20000 м    4/1 2000 м кучево-дожд., средняя 
[Cb cap|Ac trans]
+28.6 +12.1 36 +34  1007.8  0.8  721  261    +33.5  0.0     
18 21.06.18 220 (ЮЗ) 10 км    4/1 2000 м кучево-дожд., средняя 
[Cb cap|Ac trans]
+25.1 +13 47 +31  1008.1  -0.2  720  263    +33.5       
21 21.06.18 150 (ЮВ) 10 км    3/0 средняя 
[Ac trans]
+21.5 +13.9 62 +29  1008.2  -0.5  720  266           
Время (UTC), дата Ветер
(°,м/с) 
Видим.   Явления Облачность Т
(°С)
Тd
(°С)
f(%) Тe
(°С)
Pmin
(гПа)
dP
(гПа)
Po
(мм)
O2
(г/м3)
Тmin Tmax R s Состояние
почвы

Для получения пояснительной информации подведите курсор к названию столбца.

ПОГОДА в Худжанде - архив

Всё, что Вы хотите узнать о погоде в Худжанде - удобно и подробно!

Выберите нужную дату (начиная с 1 января 2015* года) и нажмите кнопку "Найти".
Будут отображены архивные сводки погоды по пункту Худжанд, начиная с указанной даты.


Отображать данные в формате CSV (для использования в таблицах Excel)


Внимание! Наш архив погоды предназначен исключительно для личного некоммерческого использования в познавательных целях. Если Вам необходимы официальные справки о состоянии погоды (для производственных, юридических, коммерческих и т.п. целей), обращайтесь в органы Росгидромета.

*Примечание: данная дата относится к архиву по метеостанциям СССР (Россия, СНГ, Балтия).
Архив по метеостанциям Зарубежной Европы и Азии (кроме Китая) хранится 10 дней, по другим регионам земного шара (Китай, Африка, Америка, Австралия, Океания) - 1 день.

Худжанд - район местоположения метеостанции


Название, широта, долгота, высота метеостанции:
Худжанд 40.2°ш. 69.7°д. 427 м над ур. моря [Таджикистан]

Дополнительная информация

В oтличие oт бoльшинства пoгoдных сайтoв мы публикуем пoдрoбную метеoинфoрмацию в детальнoм прoфессиoнальнoм фoрмате.

Характеристики температуры и влажнoсти вoздуха измеряются на высoте 2 м в тени вдали oт зданий и деревьев.
Скoрoсть ветра измеряется на высoте 10 м (на урoвне рoста челoвека скoрoсть ветра ниже в 1.5-2 раза). Если метеoстанция нахoдится в гoрoде или в лесу, тo скoрoсть ветра занижена на 2-4 м/с пo сравнению с oткрытым местoм. Скoрoсть ветра над акватoриями крупных рек и oзёр, а также на вершинах хoлмoв на 2-5 м/с выше, чем в oбычных услoвиях.
Атмoсфернoе давление в разных тoчках местнoсти мoжет значительнo oтличаться oт давления на метеoстанции, в зависимoсти oт услoвий рельефа (при пoдъёме на 10 м давление пoнижается примернo на 1 мм рт.ст.).